Flag for Mexico Weather past 2 weeks in Guadalajara, Jalisco, Mexico

Now
63 °F

Mostly cloudy.


Feels Like: 63 °F
Forecast: 61 / 75 °F
Wind: No wind

Location: Don Miguel / Guadalaj

Current Time: Oct 20, 2014 at 6:20:41 AM

Latest Report: Oct 20, 2014 at 5:54 AM


Visibility: 10 mi

Pressure: 30.05 "Hg

Humidity: 94%

Dew point: 61 °F

Location of GuadalajaraLocation

Historic Weather in Guadalajara — Graph

°F

Guadalajara temperature yesterday

Maximum temperature yesterday: 81 °F (at 2:48 PM)
Minimum temperature yesterday: 63 °F (at 1:53 AM)
Average temperature yesterday: 69 °F

Past Weeks' High & Low Weather Summary

 TemperatureHumidityPressure
High82 °F (Oct 14, 4:49 PM)94% (Oct 5, 5:55 AM)30.26 "Hg (Oct 5, 5:55 AM)
Low50 °F (Oct 16, 7:49 AM)17% (Oct 17, 5:49 PM)29.67 "Hg (Oct 19, 6:52 PM)
Average67 °F71%30.04 "Hg
* Reported Oct 5 4:54 AM — Oct 20 4:51 AM, Guadalajara, Weather by CustomWeather, © 2014

Note: Actual official high and low records may vary slightly from our data, if they occured in-between our weather recording intervals... More about our weather records

Advertising

Guadalajara weather history for previous 24 hours

 ConditionsComfort  
Time TempWeatherWind HumidityBarometerVisibility
4:51 AM
Oct 20
63 °FLight rain. Mostly cloudy.No wind88%30.05 "Hg7 mi
3:53 AM63 °FPassing clouds.3 mph88%29.71 "Hg10 mi
3:00 AM63 °FMild.N/A88%30.07 "HgN/A
2:54 AM63 °FPassing clouds.8 mph88%30.07 "Hg8 mi
1:51 AM66 °FPassing clouds.3 mph78%30.07 "Hg10 mi
12:48 AM66 °FPassing clouds.5 mph83%29.73 "Hg10 mi
11:48 PM
Oct 19
68 °FPartly cloudy.No wind83%30.07 "Hg10 mi
9:54 PM70 °FPartly cloudy.7 mph64%29.74 "Hg10 mi
8:48 PM70 °FPassing clouds.No wind69%30.02 "Hg10 mi
7:48 PM72 °FScattered clouds.3 mph69%30.00 "Hg10 mi
6:52 PM77 °FBroken clouds.3 mph47%29.67 "Hg12 mi
5:49 PM81 °FBroken clouds.No wind42%29.99 "Hg12 mi
3:49 PM79 °FPartly sunny.No wind45%29.70 "Hg12 mi
2:48 PM81 °FPartly sunny.7 mph42%30.05 "Hg12 mi
1:55 PM77 °FPartly sunny.8 mph47%30.08 "Hg12 mi
12:51 PM73 °FPartly sunny.12 mph53%29.80 "Hg12 mi
11:53 AM73 °FPartly sunny.10 mph57%30.14 "Hg8 mi
10:46 AM70 °FPartly sunny.6 mph69%30.14 "Hg8 mi
9:46 AM66 °FPartly sunny.No wind78%29.86 "Hg8 mi
8:45 AM63 °FPartly cloudy.No wind88%30.11 "Hg8 mi
7:49 AM63 °FPassing clouds.No wind88%30.11 "Hg8 mi
Weather by CustomWeather, © 2014

See weather overviewHow to use our weather pages